"read_dt","SO2 (ppb)","flags","PMT voltage (V)","lamp voltage (V)","lamp intensity (Hz)","internal temp (C)","react chamber temp (C)","sample flow (l/min)","pres (mmHg)","SO2 bkg (ppb)","SO2 coefficient"
2015-01-01 00:00:00,2498E-3,5C000000,-0724,0835,12085,028.2,045.4,0.453,742.4,01.18,0.508
2015-01-01 00:01:00,2504E-3,5C000000,-0724,0835,12148,028.2,045.4,0.452,742.4,01.18,0.508
2015-01-01 00:02:00,2552E-3,5C000000,-0724,0836,12001,028.3,045.5,0.452,742.4,01.18,0.508
2015-01-01 00:03:00,2447E-3,5C000000,-0724,0836,12205,028.3,045.5,0.452,742.4,01.18,0.508
2015-01-01 00:04:00,2516E-3,5C000000,-0724,0836,12020,028.3,045.5,0.452,742.4,01.18,0.508
2015-01-01 00:05:00,2580E-3,5C000000,-0724,0836,12176,028.3,045.5,0.452,742.4,01.18,0.508
2015-01-01 00:06:00,2598E-3,5C000000,-0724,0835,12249,028.3,045.4,0.452,742.4,01.18,0.508
2015-01-01 00:07:00,2593E-3,5C000000,-0724,0835,12195,028.2,045.4,0.452,742.3,01.18,0.508
2015-01-01 00:08:00,2489E-3,5C000000,-0724,0836,12151,028.3,045.5,0.452,742.4,01.18,0.508
2015-01-01 00:09:00,2442E-3,5C000000,-0724,0836,12118,028.3,045.4,0.452,742.4,01.18,0.508
2015-01-01 00:10:00,2551E-3,5C000000,-0724,0836,12162,028.3,045.5,0.452,742.3,01.18,0.508
2015-01-01 00:11:00,2639E-3,5C000000,-0724,0836,12108,028.3,045.4,0.452,742.4,01.18,0.508
2015-01-01 00:12:00,2533E-3,5C000000,-0724,0835,12261,028.3,045.4,0.452,742.4,01.18,0.508
2015-01-01 00:13:00,2470E-3,5C000000,-0724,0835,11921,028.3,045.4,0.453,742.4,01.18,0.508
2015-01-01 00:14:00,2488E-3,5C000000,-0724,0836,12095,028.3,045.4,0.452,742.3,01.18,0.508
2015-01-01 00:15:00,2563E-3,5C000000,-0724,0836,12094,028.3,045.4,0.452,742.4,01.18,0.508
2015-01-01 00:16:00,2399E-3,5C000000,-0724,0835,12105,028.3,045.4,0.452,742.4,01.18,0.508
2015-01-01 00:17:00,2571E-3,5C000000,-0724,0835,12048,028.3,045.4,0.452,742.4,01.18,0.508
2015-01-01 00:18:00,2492E-3,5C000000,-0724,0836,12029,028.3,045.4,0.452,742.4,01.18,0.508
2015-01-01 00:19:00,2499E-3,5C000000,-0724,0835,12004,028.3,045.4,0.452,742.4,01.18,0.508
2015-01-01 00:20:00,2495E-3,5C000000,-0724,0836,12085,028.2,045.5,0.452,742.3,01.18,0.508
2015-01-01 00:21:00,2521E-3,5C000000,-0724,0835,12146,028.3,045.4,0.452,742.4,01.18,0.508
2015-01-01 00:22:00,2544E-3,5C000000,-0724,0835,12163,028.3,045.4,0.452,742.3,01.18,0.508
2015-01-01 00:23:00,2474E-3,5C000000,-0724,0835,12079,028.3,045.4,0.452,742.3,01.18,0.508
2015-01-01 00:24:00,2365E-3,5C000000,-0724,0836,12213,028.3,045.4,0.452,742.3,01.18,0.508
2015-01-01 00:25:00,2539E-3,5C000000,-0724,0837,12147,028.3,045.4,0.452,742.3,01.18,0.508
2015-01-01 00:26:00,2450E-3,5C000000,-0724,0836,12176,028.3,045.5,0.452,742.3,01.18,0.508
2015-01-01 00:27:00,2497E-3,5C000000,-0724,0836,12142,028.3,045.5,0.452,742.3,01.18,0.508
2015-01-01 00:28:00,2494E-3,5C000000,-0724,0835,12203,028.3,045.5,0.452,742.2,01.18,0.508
2015-01-01 00:29:00,2519E-3,5C000000,-0724,0836,12191,028.3,045.4,0.452,742.3,01.18,0.508
2015-01-01 00:30:00,2491E-3,5C000000,-0724,0836,12070,028.3,045.4,0.452,742.3,01.18,0.508
2015-01-01 00:31:00,2484E-3,5C000000,-0724,0836,12072,028.3,045.4,0.452,742.2,01.18,0.508
2015-01-01 00:32:00,2596E-3,5C000000,-0724,0836,11998,028.3,045.4,0.452,742.2,01.18,0.508
2015-01-01 00:33:00,2503E-3,5C000000,-0724,0835,12207,028.3,045.4,0.452,742.2,01.18,0.508
2015-01-01 00:34:00,2466E-3,5C000000,-0724,0836,12124,028.3,045.4,0.452,742.1,01.18,0.508
2015-01-01 00:35:00,2458E-3,5C000000,-0724,0836,11987,028.3,045.4,0.452,742.2,01.18,0.508
2015-01-01 00:36:00,2236E-3,5C000000,-0724,0835,12097,028.3,045.5,0.452,742.1,01.18,0.508
2015-01-01 00:37:00,2466E-3,5C000000,-0724,0836,11967,028.3,045.5,0.452,742.1,01.18,0.508
2015-01-01 00:38:00,2476E-3,5C000000,-0724,0836,11892,028.3,045.5,0.452,742.0,01.18,0.508
2015-01-01 00:39:00,2302E-3,5C000000,-0724,0836,12137,028.3,045.4,0.452,742.1,01.18,0.508
2015-01-01 00:40:00,2501E-3,5C000000,-0724,0836,12052,028.3,045.4,0.452,741.9,01.18,0.508
2015-01-01 00:41:00,2375E-3,5C000000,-0724,0836,12192,028.3,045.5,0.452,742.1,01.18,0.508
2015-01-01 00:42:00,2336E-3,5C000000,-0724,0836,12307,028.3,045.4,0.452,742.1,01.18,0.508
2015-01-01 00:43:00,2299E-3,5C000000,-0724,0836,12184,028.3,045.4,0.452,742.1,01.18,0.508
2015-01-01 00:44:00,2517E-3,5C000000,-0724,0835,12176,028.3,045.4,0.452,742.2,01.18,0.508
2015-01-01 00:45:00,2477E-3,5C000000,-0724,0835,12050,028.3,045.4,0.452,742.2,01.18,0.508
2015-01-01 00:46:00,2345E-3,5C000000,-0724,0835,12193,028.3,045.5,0.452,742.2,01.18,0.508
2015-01-01 00:47:00,2468E-3,5C000000,-0724,0836,12164,028.3,045.4,0.452,742.2,01.18,0.508
2015-01-01 00:48:00,2426E-3,5C000000,-0724,0836,12247,028.3,045.4,0.452,742.2,01.18,0.508
2015-01-01 00:49:00,2403E-3,5C000000,-0724,0836,12308,028.3,045.4,0.452,742.1,01.18,0.508
2015-01-01 00:50:00,2334E-3,5C000000,-0724,0836,12248,028.3,045.4,0.452,742.2,01.18,0.508
2015-01-01 00:51:00,2367E-3,5C000000,-0724,0836,12256,028.3,045.4,0.452,742.2,01.18,0.508
2015-01-01 00:52:00,2464E-3,5C000000,-0724,0836,12149,028.3,045.4,0.452,742.2,01.18,0.508
2015-01-01 00:53:00,2466E-3,5C000000,-0724,0836,12173,028.3,045.5,0.452,742.1,01.18,0.508
2015-01-01 00:54:00,2547E-3,5C000000,-0724,0836,12018,028.3,045.5,0.452,742.1,01.18,0.508
2015-01-01 00:55:00,2363E-3,5C000000,-0724,0835,12062,028.3,045.4,0.452,742.1,01.18,0.508
2015-01-01 00:56:00,2277E-3,5C000000,-0724,0835,12254,028.3,045.5,0.452,742.2,01.18,0.508
2015-01-01 00:57:00,2277E-3,5C000000,-0724,0835,11960,028.3,045.5,0.452,742.1,01.18,0.508
2015-01-01 00:58:00,2365E-3,5C000000,-0724,0835,12102,028.3,045.4,0.452,742.1,01.18,0.508
2015-01-01 00:59:00,2518E-3,5C000000,-0724,0835,12128,028.3,045.4,0.452,742.1,01.18,0.508
2015-01-01 01:00:00,2307E-3,5C000000,-0724,0835,12130,028.3,045.4,0.452,742.1,01.18,0.508
2015-01-01 01:01:00,2361E-3,5C000000,-0724,0835,12147,028.3,045.4,0.452,742.1,01.18,0.508
2015-01-01 01:02:00,2444E-3,5C000000,-0724,0836,12265,028.3,045.4,0.452,742.1,01.18,0.508
2015-01-01 01:03:00,2424E-3,5C000000,-0724,0836,12166,028.3,045.4,0.452,742.2,01.18,0.508
2015-01-01 01:04:00,2387E-3,5C000000,-0724,0836,12233,028.3,045.4,0.452,742.1,01.18,0.508
2015-01-01 01:05:00,2363E-3,5C000000,-0724,0836,11958,028.3,045.4,0.452,742.1,01.18,0.508
2015-01-01 01:06:00,2253E-3,5C000000,-0724,0836,12102,028.3,045.4,0.452,742.1,01.18,0.508
2015-01-01 01:07:00,2458E-3,5C000000,-0724,0836,12135,028.3,045.4,0.452,742.1,01.18,0.508
2015-01-01 01:08:00,2415E-3,5C000000,-0724,0836,12065,028.3,045.5,0.452,742.1,01.18,0.508
2015-01-01 01:09:00,2467E-3,5C000000,-0724,0835,12126,028.3,045.5,0.452,742.1,01.18,0.508
2015-01-01 01:10:00,2390E-3,5C000000,-0724,0835,12213,028.4,045.5,0.452,742.1,01.18,0.508
2015-01-01 01:11:00,2399E-3,5C000000,-0724,0837,12245,028.4,045.5,0.452,742.0,01.18,0.508
2015-01-01 01:12:00,2477E-3,5C000000,-0724,0836,12257,028.4,045.4,0.452,742.1,01.18,0.508
2015-01-01 01:13:00,2569E-3,5C000000,-0724,0835,12151,028.4,045.4,0.452,742.1,01.18,0.508
2015-01-01 01:14:00,2481E-3,5C000000,-0724,0836,12149,028.4,045.5,0.452,742.0,01.18,0.508
2015-01-01 01:15:00,2499E-3,5C000000,-0724,0835,12245,028.4,045.5,0.452,742.0,01.18,0.508
2015-01-01 01:16:00,2560E-3,5C000000,-0724,0836,12216,028.5,045.4,0.452,742.0,01.18,0.508
2015-01-01 01:17:00,2436E-3,5C000000,-0724,0836,11897,028.5,045.4,0.452,742.0,01.18,0.508
2015-01-01 01:18:00,2380E-3,5C000000,-0724,0837,12194,028.5,045.4,0.452,742.1,01.18,0.508
2015-01-01 01:19:00,2463E-3,5C000000,-0724,0837,12217,028.5,045.4,0.452,742.0,01.18,0.508
2015-01-01 01:20:00,2497E-3,5C000000,-0724,0836,12215,028.5,045.4,0.452,742.0,01.18,0.508
2015-01-01 01:21:00,2482E-3,5C000000,-0724,0837,12130,028.5,045.4,0.452,742.0,01.18,0.508
2015-01-01 01:22:00,2359E-3,5C000000,-0724,0836,12231,028.6,045.5,0.451,742.0,01.18,0.508
2015-01-01 01:23:00,2681E-3,5C000000,-0724,0837,12168,028.6,045.4,0.452,742.0,01.18,0.508
2015-01-01 01:24:00,2324E-3,5C000000,-0724,0836,12202,028.6,045.4,0.451,742.0,01.18,0.508
2015-01-01 01:25:00,2475E-3,5C000000,-0724,0836,12048,028.6,045.4,0.452,742.0,01.18,0.508
2015-01-01 01:26:00,2315E-3,5C000000,-0724,0836,12290,028.6,045.5,0.451,742.0,01.18,0.508
2015-01-01 01:27:00,2309E-3,5C000000,-0724,0836,12235,028.6,045.5,0.452,742.0,01.18,0.508
2015-01-01 01:28:00,2397E-3,5C000000,-0724,0836,11998,028.7,045.5,0.452,742.0,01.18,0.508
2015-01-01 01:29:00,2523E-3,5C000000,-0724,0835,12135,028.7,045.4,0.452,741.9,01.18,0.508
2015-01-01 01:30:00,2521E-3,5C000000,-0724,0836,12212,028.7,045.5,0.452,741.9,01.18,0.508
2015-01-01 01:31:00,2294E-3,5C000000,-0724,0836,12285,028.7,045.5,0.452,742.0,01.18,0.508
2015-01-01 01:32:00,2474E-3,5C000000,-0724,0837,12291,028.7,045.5,0.452,742.0,01.18,0.508
2015-01-01 01:33:00,2588E-3,5C000000,-0724,0836,12211,028.7,045.5,0.452,742.0,01.18,0.508
2015-01-01 01:34:00,2578E-3,5C000000,-0724,0836,12187,028.7,045.4,0.451,742.0,01.18,0.508
2015-01-01 01:35:00,2410E-3,5C000000,-0724,0836,12234,028.7,045.5,0.452,742.0,01.18,0.508
2015-01-01 01:36:00,2378E-3,5C000000,-0724,0836,12058,028.7,045.5,0.452,742.0,01.18,0.508
2015-01-01 01:37:00,2570E-3,5C000000,-0724,0836,12154,028.7,045.5,0.452,742.0,01.18,0.508
2015-01-01 01:38:00,2454E-3,5C000000,-0724,0836,12116,028.7,045.5,0.451,742.0,01.18,0.508
2015-01-01 01:39:00,2513E-3,5C000000,-0724,0836,12119,028.7,045.5,0.452,742.1,01.18,0.508
2015-01-01 01:40:00,2426E-3,5C000000,-0724,0836,12181,028.7,045.5,0.452,742.1,01.18,0.508
2015-01-01 01:41:00,2402E-3,5C000000,-0724,0836,12034,028.7,045.4,0.452,742.1,01.18,0.508
2015-01-01 01:42:00,2441E-3,5C000000,-0724,0836,12160,028.7,045.5,0.452,742.1,01.18,0.508
2015-01-01 01:43:00,2462E-3,5C000000,-0724,0837,12088,028.7,045.5,0.451,742.0,01.18,0.508
2015-01-01 01:44:00,2468E-3,5C000000,-0724,0836,12125,028.7,045.5,0.452,742.0,01.18,0.508
2015-01-01 01:45:00,2495E-3,5C000000,-0724,0835,11958,028.6,045.5,0.451,742.0,01.18,0.508
2015-01-01 01:46:00,2458E-3,5C000000,-0724,0836,12097,028.6,045.5,0.452,742.0,01.18,0.508
2015-01-01 01:47:00,2532E-3,5C000000,-0724,0835,12081,028.6,045.4,0.451,742.0,01.18,0.508
2015-01-01 01:48:00,2464E-3,5C000000,-0724,0836,12146,028.6,045.5,0.452,742.0,01.18,0.508
2015-01-01 01:49:00,2431E-3,5C000000,-0724,0836,12062,028.6,045.5,0.451,742.0,01.18,0.508
2015-01-01 01:50:00,2423E-3,5C000000,-0724,0836,12118,028.6,045.5,0.452,742.0,01.18,0.508
2015-01-01 01:51:00,2549E-3,5C000000,-0724,0836,12118,028.6,045.5,0.451,742.0,01.18,0.508
2015-01-01 01:52:00,2426E-3,5C000000,-0724,0836,12076,028.6,045.4,0.452,742.0,01.18,0.508
2015-01-01 01:53:00,2623E-3,5C000000,-0724,0836,12209,028.6,045.4,0.451,742.0,01.18,0.508
2015-01-01 01:54:00,2493E-3,5C000000,-0724,0836,12281,028.6,045.4,0.452,742.1,01.18,0.508
2015-01-01 01:55:00,2504E-3,5C000000,-0724,0836,12225,028.6,045.4,0.451,742.1,01.18,0.508
2015-01-01 01:56:00,2611E-3,5C000000,-0724,0836,12090,028.6,045.5,0.452,742.0,01.18,0.508
2015-01-01 01:57:00,2524E-3,5C000000,-0724,0836,12133,028.6,045.5,0.451,742.0,01.18,0.508
2015-01-01 01:58:00,2474E-3,5C000000,-0724,0835,12229,028.6,045.5,0.452,742.0,01.18,0.508
2015-01-01 01:59:00,2665E-3,5C000000,-0724,0836,12208,028.6,045.5,0.451,742.0,01.18,0.508
2015-01-01 02:00:00,2451E-3,5C000000,-0724,0836,12236,028.7,045.5,0.452,742.0,01.18,0.508
2015-01-01 02:01:00,2618E-3,5C000000,-0724,0836,12229,028.7,045.5,0.451,742.0,01.18,0.508
2015-01-01 02:02:00,2375E-3,5C000000,-0724,0836,12216,028.7,045.5,0.452,742.0,01.18,0.508
2015-01-01 02:03:00,2481E-3,5C000000,-0724,0835,12151,028.7,045.5,0.451,741.9,01.18,0.508
2015-01-01 02:04:00,2366E-3,5C000000,-0724,0836,12250,028.7,045.4,0.452,741.9,01.18,0.508
2015-01-01 02:05:00,2600E-3,5C000000,-0724,0837,12143,028.7,045.5,0.451,741.9,01.18,0.508
2015-01-01 02:06:00,2481E-3,5C000000,-0724,0836,12043,028.7,045.5,0.452,741.9,01.18,0.508
2015-01-01 02:07:00,2627E-3,5C000000,-0724,0835,12156,028.7,045.5,0.452,741.9,01.18,0.508
2015-01-01 02:08:00,2472E-3,5C000000,-0724,0836,12213,028.8,045.5,0.451,741.9,01.18,0.508
2015-01-01 02:09:00,2456E-3,5C000000,-0724,0836,12212,028.8,045.5,0.452,742.0,01.18,0.508
2015-01-01 02:10:00,2505E-3,5C000000,-0724,0836,12042,028.8,045.4,0.451,741.9,01.18,0.508
2015-01-01 02:11:00,2488E-3,5C000000,-0724,0836,12102,028.8,045.5,0.452,741.9,01.18,0.508
2015-01-01 02:12:00,2466E-3,5C000000,-0724,0836,12170,028.8,045.5,0.451,741.9,01.18,0.508
2015-01-01 02:13:00,2500E-3,5C000000,-0724,0836,12155,028.8,045.5,0.452,741.9,01.18,0.508
2015-01-01 02:14:00,2656E-3,5C000000,-0724,0836,11923,028.8,045.5,0.451,741.8,01.18,0.508
2015-01-01 02:15:00,2440E-3,5C000000,-0724,0836,11979,028.8,045.4,0.452,741.8,01.18,0.508
2015-01-01 02:16:00,2515E-3,5C000000,-0724,0835,12125,028.8,045.4,0.451,741.9,01.18,0.508
2015-01-01 02:17:00,2536E-3,5C000000,-0724,0836,12196,028.9,045.5,0.452,741.9,01.18,0.508
2015-01-01 02:18:00,2405E-3,5C000000,-0724,0836,12207,028.9,045.5,0.451,741.9,01.18,0.508
2015-01-01 02:19:00,2563E-3,5C000000,-0724,0836,12182,028.9,045.4,0.451,741.9,01.18,0.508
2015-01-01 02:20:00,2513E-3,5C000000,-0724,0836,12261,028.9,045.5,0.451,741.9,01.18,0.508
2015-01-01 02:21:00,2527E-3,5C000000,-0724,0835,12006,028.9,045.4,0.451,741.9,01.18,0.508
2015-01-01 02:22:00,2540E-3,5C000000,-0724,0835,12204,028.9,045.5,0.451,741.9,01.18,0.508
2015-01-01 02:23:00,2505E-3,5C000000,-0724,0836,12288,028.9,045.5,0.451,741.9,01.18,0.508
2015-01-01 02:24:00,2529E-3,5C000000,-0724,0836,12268,028.9,045.5,0.451,741.8,01.18,0.508
2015-01-01 02:25:00,2408E-3,5C000000,-0724,0836,11926,028.9,045.5,0.451,741.8,01.18,0.508
2015-01-01 02:26:00,2600E-3,5C000000,-0724,0836,12073,028.9,045.5,0.451,741.8,01.18,0.508
2015-01-01 02:27:00,2436E-3,5C000000,-0724,0836,12117,028.9,045.5,0.451,741.8,01.18,0.508
2015-01-01 02:28:00,2410E-3,5C000000,-0724,0836,12312,028.9,045.5,0.451,741.8,01.18,0.508
2015-01-01 02:29:00,2422E-3,5C000000,-0724,0835,12114,028.9,045.5,0.451,741.8,01.18,0.508
2015-01-01 02:30:00,2467E-3,5C000000,-0724,0835,11973,028.9,045.5,0.451,741.8,01.18,0.508
2015-01-01 02:31:00,2423E-3,5C000000,-0724,0835,12129,028.9,045.5,0.451,741.7,01.18,0.508
2015-01-01 02:32:00,2352E-3,5C000000,-0724,0837,12222,028.9,045.5,0.451,741.9,01.18,0.508
2015-01-01 02:33:00,2500E-3,5C000000,-0724,0836,12168,028.9,045.5,0.451,741.9,01.18,0.508
2015-01-01 02:34:00,2529E-3,5C000000,-0724,0836,12122,028.9,045.5,0.451,741.9,01.18,0.508
2015-01-01 02:35:00,2342E-3,5C000000,-0724,0835,12221,028.9,045.5,0.451,741.9,01.18,0.508
2015-01-01 02:36:00,2403E-3,5C000000,-0724,0835,12298,028.9,045.5,0.451,741.9,01.18,0.508
2015-01-01 02:37:00,2363E-3,5C000000,-0724,0835,12015,028.9,045.5,0.451,741.9,01.18,0.508
2015-01-01 02:38:00,2481E-3,5C000000,-0724,0835,12164,028.9,045.5,0.451,741.9,01.18,0.508
2015-01-01 02:39:00,2294E-3,5C000000,-0724,0836,12090,028.9,045.5,0.451,741.8,01.18,0.508
2015-01-01 02:40:00,2474E-3,5C000000,-0724,0836,12084,029.0,045.4,0.451,741.8,01.18,0.508
2015-01-01 02:41:00,2571E-3,5C000000,-0724,0835,12033,028.9,045.5,0.452,741.8,01.18,0.508
2015-01-01 02:42:00,2404E-3,5C000000,-0724,0836,12010,028.9,045.4,0.451,741.8,01.18,0.508
2015-01-01 02:43:00,2560E-3,5C000000,-0724,0835,12259,029.0,045.5,0.451,741.8,01.18,0.508
2015-01-01 02:44:00,2389E-3,5C000000,-0724,0836,12072,028.9,045.4,0.451,741.8,01.18,0.508
2015-01-01 02:45:00,2606E-3,5C000000,-0724,0835,12118,029.0,045.5,0.451,741.9,01.18,0.508
2015-01-01 02:46:00,2481E-3,5C000000,-0724,0836,12144,028.9,045.5,0.451,741.9,01.18,0.508
2015-01-01 02:47:00,2386E-3,5C000000,-0724,0836,12074,028.9,045.4,0.451,741.9,01.18,0.508
2015-01-01 02:48:00,2418E-3,5C000000,-0724,0836,12176,029.0,045.5,0.451,741.9,01.18,0.508
2015-01-01 02:49:00,2402E-3,5C000000,-0724,0835,12081,028.9,045.5,0.451,741.9,01.18,0.508
2015-01-01 02:50:00,2410E-3,5C000000,-0724,0835,12053,028.9,045.5,0.451,741.9,01.18,0.508
2015-01-01 02:51:00,2510E-3,5C000000,-0724,0836,12141,028.9,045.5,0.451,741.9,01.18,0.508
2015-01-01 02:52:00,2659E-3,5C000000,-0724,0836,12298,028.9,045.5,0.451,741.9,01.18,0.508
2015-01-01 02:53:00,2364E-3,5C000000,-0724,0835,12227,028.9,045.5,0.451,741.9,01.18,0.508
2015-01-01 02:54:00,2493E-3,5C000000,-0724,0835,12237,028.9,045.5,0.451,741.8,01.18,0.508
2015-01-01 02:55:00,2458E-3,5C000000,-0724,0835,12131,028.9,045.5,0.451,741.8,01.18,0.508
2015-01-01 02:56:00,2493E-3,5C000000,-0724,0836,12195,028.9,045.5,0.451,741.8,01.18,0.508
2015-01-01 02:57:00,2528E-3,5C000000,-0724,0835,12226,029.0,045.5,0.451,741.9,01.18,0.508
2015-01-01 02:58:00,2409E-3,5C000000,-0724,0835,12283,028.9,045.5,0.451,741.9,01.18,0.508
2015-01-01 02:59:00,2452E-3,5C000000,-0724,0835,12145,028.9,045.5,0.451,741.8,01.18,0.508
2015-01-01 03:00:00,2371E-3,5C000000,-0724,0836,12010,028.9,045.5,0.451,741.8,01.18,0.508
2015-01-01 03:01:00,2489E-3,5C000000,-0724,0835,12086,028.9,045.5,0.451,741.8,01.18,0.508
2015-01-01 03:02:00,2478E-3,5C000000,-0724,0835,12073,028.9,045.5,0.452,741.9,01.18,0.508
2015-01-01 03:03:00,2446E-3,5C000000,-0724,0835,12227,028.9,045.4,0.451,741.9,01.18,0.508
2015-01-01 03:04:00,2474E-3,5C000000,-0724,0834,12168,028.9,045.4,0.452,741.8,01.18,0.508
2015-01-01 03:05:00,2499E-3,5C000000,-0724,0834,12139,028.9,045.5,0.451,741.8,01.18,0.508
2015-01-01 03:06:00,2380E-3,5C000000,-0724,0835,12121,028.9,045.5,0.452,741.8,01.18,0.508
2015-01-01 03:07:00,2436E-3,5C000000,-0724,0835,12234,028.9,045.5,0.451,741.9,01.18,0.508
2015-01-01 03:08:00,2452E-3,5C000000,-0724,0835,12107,028.9,045.5,0.452,741.9,01.18,0.508
2015-01-01 03:09:00,2569E-3,5C000000,-0724,0835,12154,028.9,045.5,0.451,741.9,01.18,0.508
2015-01-01 03:10:00,2502E-3,5C000000,-0724,0836,12026,028.9,045.5,0.451,741.9,01.18,0.508
2015-01-01 03:11:00,2535E-3,5C000000,-0724,0835,11987,028.9,045.5,0.451,741.8,01.18,0.508
2015-01-01 03:12:00,2433E-3,5C000000,-0724,0835,12041,028.9,045.5,0.451,741.8,01.18,0.508
2015-01-01 03:13:00,2349E-3,5C000000,-0724,0836,12175,028.9,045.5,0.451,741.7,01.18,0.508
2015-01-01 03:14:00,2489E-3,5C000000,-0724,0835,12144,028.9,045.5,0.451,741.7,01.18,0.508
2015-01-01 03:15:00,2445E-3,5C000000,-0724,0835,12068,028.9,045.5,0.451,741.7,01.18,0.508
2015-01-01 03:16:00,2377E-3,5C000000,-0724,0836,12146,028.9,045.5,0.451,741.7,01.18,0.508
2015-01-01 03:17:00,2507E-3,5C000000,-0724,0835,12195,028.9,045.5,0.451,741.7,01.18,0.508
2015-01-01 03:18:00,2527E-3,5C000000,-0724,0836,12042,028.9,045.5,0.451,741.7,01.18,0.508
2015-01-01 03:19:00,2649E-3,5C000000,-0724,0835,12104,028.9,045.5,0.452,741.7,01.18,0.508
2015-01-01 03:20:00,2554E-3,5C000000,-0724,0835,12251,028.9,045.5,0.451,741.7,01.18,0.508
2015-01-01 03:21:00,2372E-3,5C000000,-0724,0835,12137,028.9,045.5,0.451,741.7,01.18,0.508
2015-01-01 03:22:00,2424E-3,5C000000,-0724,0835,12100,028.8,045.5,0.451,741.7,01.18,0.508
2015-01-01 03:23:00,2425E-3,5C000000,-0724,0835,12049,028.9,045.4,0.451,741.7,01.18,0.508
2015-01-01 03:24:00,2353E-3,5C000000,-0724,0835,12155,028.9,045.5,0.451,741.8,01.18,0.508
2015-01-01 03:25:00,2523E-3,5C000000,-0724,0835,12156,028.9,045.5,0.451,741.8,01.18,0.508
2015-01-01 03:26:00,2401E-3,5C000000,-0724,0835,12204,028.9,045.5,0.451,741.8,01.18,0.508
2015-01-01 03:27:00,2528E-3,5C000000,-0724,0836,12017,028.9,045.5,0.451,741.8,01.18,0.508
2015-01-01 03:28:00,2419E-3,5C000000,-0724,0835,12056,028.8,045.4,0.452,741.8,01.18,0.508
2015-01-01 03:29:00,2431E-3,5C000000,-0724,0836,12039,028.8,045.4,0.451,741.8,01.18,0.508
2015-01-01 03:30:00,2374E-3,5C000000,-0724,0835,12254,028.8,045.5,0.452,741.9,01.18,0.508
2015-01-01 03:31:00,2455E-3,5C000000,-0724,0835,12179,028.8,045.5,0.451,741.9,01.18,0.508
2015-01-01 03:32:00,2396E-3,5C000000,-0724,0836,12173,028.8,045.5,0.452,741.8,01.18,0.508
2015-01-01 03:33:00,2491E-3,5C000000,-0724,0835,12124,028.8,045.4,0.451,741.8,01.18,0.508
2015-01-01 03:34:00,2390E-3,5C000000,-0724,0835,12253,028.8,045.4,0.451,741.8,01.18,0.508
2015-01-01 03:35:00,2444E-3,5C000000,-0724,0835,12207,028.8,045.5,0.451,741.8,01.18,0.508
2015-01-01 03:36:00,2352E-3,5C000000,-0724,0836,12196,028.8,045.5,0.451,741.8,01.18,0.508
2015-01-01 03:37:00,2461E-3,5C000000,-0724,0835,12222,028.8,045.5,0.451,741.8,01.18,0.508
2015-01-01 03:38:00,2374E-3,5C000000,-0724,0836,12061,028.8,045.5,0.451,741.8,01.18,0.508
2015-01-01 03:39:00,2597E-3,5C000000,-0724,0835,12156,028.8,045.4,0.452,741.8,01.18,0.508
2015-01-01 03:40:00,2540E-3,5C000000,-0724,0835,12168,028.8,045.4,0.451,741.8,01.18,0.508
2015-01-01 03:41:00,2357E-3,5C000000,-0724,0836,12214,028.8,045.4,0.452,741.8,01.18,0.508
2015-01-01 03:42:00,2537E-3,5C000000,-0724,0836,12241,028.8,045.5,0.451,741.8,01.18,0.508
2015-01-01 03:43:00,2379E-3,5C000000,-0724,0835,12024,028.8,045.5,0.452,741.8,01.18,0.508
2015-01-01 03:44:00,2374E-3,5C000000,-0724,0835,12203,028.8,045.4,0.451,741.8,01.18,0.508
2015-01-01 03:45:00,2529E-3,5C000000,-0724,0836,12156,028.8,045.4,0.451,741.8,01.18,0.508
2015-01-01 03:46:00,2464E-3,5C000000,-0724,0835,12198,028.8,045.5,0.451,741.7,01.18,0.508
2015-01-01 03:47:00,2521E-3,5C000000,-0724,0835,12078,028.8,045.4,0.451,741.8,01.18,0.508
2015-01-01 03:48:00,2569E-3,5C000000,-0724,0835,12192,028.8,045.4,0.452,741.7,01.18,0.508
2015-01-01 03:49:00,2435E-3,5C000000,-0724,0835,12151,028.8,045.5,0.451,741.7,01.18,0.508
2015-01-01 03:50:00,2501E-3,5C000000,-0724,0834,12059,028.8,045.5,0.452,741.7,01.18,0.508
2015-01-01 03:51:00,2485E-3,5C000000,-0724,0835,12136,028.8,045.5,0.451,741.7,01.18,0.508
2015-01-01 03:52:00,2509E-3,5C000000,-0724,0834,12037,028.8,045.5,0.452,741.7,01.18,0.508
2015-01-01 03:53:00,2471E-3,5C000000,-0724,0835,12198,028.8,045.5,0.451,741.6,01.18,0.508
2015-01-01 03:54:00,2457E-3,5C000000,-0724,0834,11920,028.8,045.5,0.451,741.6,01.18,0.508
2015-01-01 03:55:00,2467E-3,5C000000,-0724,0835,12153,028.8,045.5,0.452,741.6,01.18,0.508
2015-01-01 03:56:00,2510E-3,5C000000,-0724,0835,12000,028.8,045.5,0.451,741.7,01.18,0.508
2015-01-01 03:57:00,2421E-3,5C000000,-0724,0835,12233,028.8,045.5,0.452,741.7,01.18,0.508
2015-01-01 03:58:00,2512E-3,5C000000,-0724,0836,12160,028.7,045.5,0.451,741.7,01.18,0.508
2015-01-01 03:59:00,2666E-3,5C000000,-0724,0835,12175,028.8,045.4,0.452,741.7,01.18,0.508
2015-01-01 04:00:00,2465E-3,5C000000,-0724,0835,12250,028.7,045.4,0.451,741.7,01.18,0.508
2015-01-01 04:01:00,2540E-3,5C000000,-0724,0835,12308,028.7,045.5,0.451,741.7,01.18,0.508
2015-01-01 04:02:00,2570E-3,5C000000,-0724,0836,12082,028.7,045.5,0.451,741.7,01.18,0.508
2015-01-01 04:03:00,2533E-3,5C000000,-0724,0836,11999,028.7,045.5,0.451,741.7,01.18,0.508
2015-01-01 04:04:00,2457E-3,5C000000,-0724,0836,12160,028.7,045.5,0.452,741.7,01.18,0.508
2015-01-01 04:05:00,2397E-3,5C000000,-0724,0835,12189,028.7,045.5,0.451,741.7,01.18,0.508
2015-01-01 04:06:00,2453E-3,5C000000,-0724,0836,12143,028.7,045.4,0.452,741.8,01.18,0.508
2015-01-01 04:07:00,2474E-3,5C000000,-0724,0835,12238,028.7,045.4,0.451,741.7,01.18,0.508
2015-01-01 04:08:00,2465E-3,5C000000,-0724,0835,12158,028.7,045.4,0.452,741.7,01.18,0.508
2015-01-01 04:09:00,2490E-3,5C000000,-0724,0835,12140,028.7,045.5,0.452,741.7,01.18,0.508
2015-01-01 04:10:00,2557E-3,5C000000,-0724,0835,11963,028.7,045.4,0.451,741.7,01.18,0.508
2015-01-01 04:11:00,2506E-3,5C000000,-0724,0835,12287,028.7,045.5,0.452,741.7,01.18,0.508
2015-01-01 04:12:00,2422E-3,5C000000,-0724,0835,12125,028.7,045.5,0.451,741.8,01.18,0.508
2015-01-01 04:13:00,2477E-3,5C000000,-0724,0835,12109,028.7,045.5,0.452,741.8,01.18,0.508
2015-01-01 04:14:00,2524E-3,5C000000,-0724,0835,12169,028.7,045.5,0.451,741.8,01.18,0.508
2015-01-01 04:15:00,2447E-3,5C000000,-0724,0835,12203,028.7,045.5,0.452,741.8,01.18,0.508
2015-01-01 04:16:00,2323E-3,5C000000,-0724,0834,12006,028.7,045.4,0.452,741.8,01.18,0.508
2015-01-01 04:17:00,2575E-3,5C000000,-0724,0835,12226,028.7,045.4,0.451,741.8,01.18,0.508
2015-01-01 04:18:00,2472E-3,5C000000,-0724,0834,12124,028.7,045.4,0.452,741.8,01.18,0.508
2015-01-01 04:19:00,2308E-3,5C000000,-0724,0835,12173,028.7,045.5,0.451,741.8,01.18,0.508
2015-01-01 04:20:00,2291E-3,5C000000,-0724,0836,12185,028.7,045.5,0.452,741.8,01.18,0.508